This demonstration page uses our WeatherBlox Daily Observations layout. Learn more.

38.88101, -77.10428

Hourly Observations for March 27, 2018

Temp ( °F °C ) Dew Point ( °F °C ) Humidity (%) Winds ( mph kmh ) Pressure ( in mb ) Visibility ( mi km ) Precip ( " mm )
12:52 am 00:52 Cloudy 37 2.8 27 -2.8 67 67 SSE 7 11 30.66 1038 10 16.0934 0 0
1:52 am 01:52 Cloudy 36 2.2 28 -2.2 73 73 SE 5 7 30.65 1038 10 16.0934 0 0
2:52 am 02:52 Cloudy 37 2.8 27 -2.8 67 67 Calm 30.63 1037 10 16.0934 0 0
3:52 am 03:52 Cloudy 36 2.2 28 -2.2 73 73 SE 3 6 30.6 1036 10 16.0934 0 0
4:52 am 04:52 Cloudy 36 2.2 28 -2.2 73 73 ESE 3 6 30.58 1036 10 16.0934 0 0
5:52 am 05:52 Cloudy 36 2.2 28 -2.2 73 73 ESE 5 7 30.56 1035 10 16.0934 0 0
6:52 am 06:52 Cloudy 35 1.7 27 -2.8 72 72 ESE 5 7 30.56 1035 10 16.0934 0 0
7:52 am 07:52 Cloudy 37 2.8 29 -1.7 73 73 ESE 6 9 30.56 1035 10 16.0934 0 0
8:52 am 08:52 Cloudy 38 3.3 28 -2.2 68 68 ESE 6 9 30.57 1035 10 16.0934 0 0
9:52 am 09:52 Cloudy 41 5 30 -1.1 65 65 SE 8 13 30.57 1035 10 16.0934 0 0
10:52 am 10:52 Cloudy 42 5.6 29 -1.7 60 60 S 7 11 30.56 1035 10 16.0934 0 0
11:52 am 11:52 Cloudy 44 6.7 28 -2.2 53 53 S 9 15 30.53 1034 10 16.0934 0 0
12:52 pm 12:52 Cloudy 45 7.2 26 -3.3 48 48 S 6 9 30.5 1033 10 16.0934 0 0.0254
1:52 pm 13:52 Cloudy with Light Rain 45 7.2 28 -2.2 52 52 S 8 13 30.46 1032 10 16.0934 0 0.0254
2:52 pm 14:52 Cloudy 47 8.3 29 -1.7 50 50 SSE 9 15 30.41 1030 10 16.0934 0 0.0254
3:52 pm 15:52 Cloudy 46 7.8 29 -1.7 51 51 SSW 8 13 30.37 1029 10 16.0934 0 0.0254
4:52 pm 16:52 Cloudy with Light Rain 45 7.2 33 0.6 63 63 S 7 11 30.34 1027 10 16.0934 0 0.0254
5:52 pm 17:52 Cloudy 45 7.2 33 0.6 63 63 S 7 11 30.32 1027 10 16.0934 0 0.0254
6:45 pm 18:45 Cloudy with Light Rain 44 6.7 35 1.7 71 71 SSW 8 13 30.3 1026 10 16.0934 0.01 0.254
6:52 pm 18:52 Cloudy with Light Rain 44 6.7 35 1.7 71 71 SSW 8 13 30.31 1026 10 16.0934 0.01 0.254
7:21 pm 19:21 Cloudy with Light Rain 44 6.7 35 1.7 71 71 SW 8 13 30.3 1026 7 11.26538 0 0.0254
7:52 pm 19:52 Cloudy with Light Rain 43 6.1 36 2.2 76 76 SSW 8 13 30.29 1026 10 16.0934 0.01 0.254
8:52 pm 20:52 Cloudy 43 6.1 37 2.8 80 80 SW 8 13 30.29 1026 10 16.0934 0 0.0254
9:26 pm 21:26 Cloudy with Light Rain 43 6.1 38 3.3 82 82 SSW 8 13 30.27 1025 10 16.0934 0 0.0254
9:52 pm 21:52 Cloudy 43 6.1 38 3.3 82 82 SSW 10 17 30.27 1025 10 16.0934 0 0.0254
10:03 pm 22:03 Cloudy 43 6.1 38 3.3 82 82 S 8 13 30.27 1025 10 16.0934 0 0
10:25 pm 22:25 Cloudy 43 6.1 38 3.3 82 82 S 9 15 30.24 1024 10 16.0934 0 0
10:52 pm 22:52 Cloudy 43 6.1 38 3.3 82 82 SSW 10 17 30.23 1024 10 16.0934 0 0
11:52 pm 23:52 Cloudy 43 6.1 37 2.8 80 80 S 8 13 30.22 1023 10 16.0934 0 0

Powered by AerisWeather